Simultaneous Nadir Overpasses (SNOs) Predictions

Prediction of SNOs between LANDSAT-8 and METOP-B Satellite Orbit:

Table of predicted SNOs for the next 14.0 days since TLE Epoch: 6/26/2021
Index Date (LANDSAT-8) Time (LANDSAT-8) Lat,Lon (LANDSAT-8) SZA (LANDSAT-8 ) Date (METOP-B) Time (METOP-B) Lat,Lon (METOP-B) SZA (METOP-B ) Distance(km) Time Diff (sec)
1 06/26/2021 02:47:00 81.11, 178.08 59.85 06/26/2021 02:46:56 81.12, 178.17 59.86 1.67 4
2 06/26/2021 03:36:25 -81.15, -13.66 120.06 06/26/2021 03:37:35 -81.15, -13.62 120.03 0.77 70
3 06/28/2021 21:31:50 -81.10, 76.67 120.08 06/28/2021 21:30:41 -81.09, 76.59 120.12 1.52 69
4 06/28/2021 22:21:15 81.13,-115.21 60.00 06/28/2021 22:21:19 81.12,-115.24 59.99 0.80 4
5 07/01/2021 17:06:06 -81.09, 143.02 119.93 07/01/2021 17:05:04 -81.10, 143.17 119.93 2.87 62
6 07/01/2021 17:55:31 81.12, -48.89 60.14 07/01/2021 17:55:43 81.12, -49.05 60.13 2.68 12
7 07/04/2021 12:40:20 -81.11,-150.31 119.68 07/04/2021 12:39:26 -81.11,-150.26 119.70 0.78 54
8 07/04/2021 13:29:45 81.13, 17.75 60.39 07/04/2021 13:30:04 81.13, 17.89 60.41 2.24 19
9 07/07/2021 08:14:36 -81.10, -84.02 119.44 07/07/2021 08:13:50 -81.10, -84.09 119.46 1.12 46



Historial Predications of SNOs between LANDSAT-8 and METOP-B
